Weather History for KSKA - November, 2012

Change the Weather History Date:

Saturday, November 17, 2012

  Actual Average Record
Temperature  
Mean Temperature 40 °F -  
Max Temperature 47 °F 40 °F 50 °F (2002)
Min Temperature 33 °F 28 °F 12 °F (2000)
Degree Days  
Heating Degree Days 25    
Moisture  
Dew Point 38 °F    
Average Humidity 100    
Maximum Humidity 100    
Minimum Humidity 100    
Precipitation  
Precipitation 0.18 in - - ()
Sea Level Pressure  
Sea Level Pressure 29.79 in    
Wind  
Wind Speed 10 mph (NE)    
Max Wind Speed 26 mph    
Max Gust Speed 33 mph    
Visibility 6 miles    
Events Rain , Snow    
Averages and records for this station are not official NWS values.
T = Trace of Precipitation, MM = Missing Value Source: NWS Daily Summary

Daily Weather History Graph

Daily Weather History Graph

Search for Another Location

Airport or City:

Trip Planner

Search our weather history database for the weather conditions in past years. The results will help you decide how hot, cold, wet, or windy it might be!

Date:

Astronomy

Nov. 17, 2012 Rise Set
Actual Time 6:59 AM PST 4:11 PM PST
Civil Twilight 6:25 AM PST 4:45 PM PST
Nautical Twilight 5:48 AM PST 5:22 PM PST
Astronomical Twilight 5:11 AM PST 5:59 PM PST
Moon 10:47 AM PST (11/17) 8:28 PM PST (11/17)
Length of Visible Light 10h 19m
Length of Day
9h 11m
Waxing Crescent, 21% of the Moon is Illuminated
Nov 17
Waxing Crescent
Nov 20
First Quarter
Nov 28
Full
Dec 6
Last Quarter
Dec 13
New

Hourly Weather History & Observations

Time (PST) Temp. Windchill Dew Point Humidity Pressure Visibility Wind Dir Wind Speed Gust Speed Precip Events Conditions
12:33 AM 33.8 °F 27.0 °F 33.8 °F 100% 29.89 in 9.0 mi NE 8.1 mph - N/A   Overcast
12:42 AM 33.8 °F 26.4 °F 33.8 °F 100% 29.88 in 7.0 mi NE 9.2 mph - N/A   Mostly Cloudy
12:47 AM 33.8 °F 26.4 °F 33.8 °F 100% 29.88 in 6.0 mi NE 9.2 mph - N/A   Mostly Cloudy
12:57 AM 33.8 °F 25.8 °F 33.8 °F 100% 29.88 in 2.5 mi NNE 10.4 mph - N/A   Mostly Cloudy
12:58 AM 34.5 °F 26.7 °F 34.5 °F 100% 29.93 in 2.5 mi NNE 10.4 mph - N/A   Mostly Cloudy
1:18 AM 35.6 °F 28.0 °F 35.6 °F 100% 29.87 in 1.8 mi NE 10.4 mph - N/A   Mostly Cloudy
1:23 AM 35.6 °F 28.0 °F 35.6 °F 100% 29.88 in 2.0 mi NNE 10.4 mph - N/A   Mostly Cloudy
1:28 AM 35.6 °F 28.6 °F 35.6 °F 100% 29.88 in 1.8 mi NE 9.2 mph - N/A   Mostly Cloudy
1:33 AM 35.6 °F 28.6 °F 35.6 °F 100% 29.87 in 1.2 mi NE 9.2 mph - N/A   Mostly Cloudy
1:38 AM 35.6 °F 29.2 °F 35.6 °F 100% 29.88 in 1.2 mi NE 8.1 mph - N/A   Overcast
1:53 AM 35.6 °F 28.0 °F 35.6 °F 100% 29.87 in 1.5 mi NE 10.4 mph - N/A   Overcast
1:58 AM 35.6 °F 27.1 °F 35.6 °F 100% 29.91 in 2.0 mi NE 12.7 mph - N/A   Overcast
2:03 AM 35.6 °F 27.5 °F 35.6 °F 100% 29.87 in 2.5 mi NE 11.5 mph - N/A   Overcast
2:13 AM 35.6 °F 28.0 °F 35.6 °F 100% 29.87 in 2.0 mi NNE 10.4 mph - N/A   Overcast
2:23 AM 35.6 °F 28.0 °F 35.6 °F 100% 29.87 in 3.0 mi NE 10.4 mph - N/A   Overcast
2:28 AM 35.6 °F 28.6 °F 35.6 °F 100% 29.86 in 5.0 mi NE 9.2 mph - N/A   Overcast
2:48 AM 35.6 °F 28.6 °F 35.6 °F 100% 29.86 in 4.0 mi NNE 9.2 mph - N/A   Overcast
2:58 AM 35.6 °F 29.2 °F 35.6 °F 100% 29.91 in 2.0 mi NNE 8.1 mph - N/A   Overcast
3:03 AM 35.6 °F 29.2 °F 35.6 °F 100% 29.86 in 1.8 mi NNE 8.1 mph - N/A   Overcast
3:13 AM 35.6 °F 28.6 °F 35.6 °F 100% 29.85 in 2.0 mi NNE 9.2 mph - N/A   Overcast
3:18 AM 35.6 °F 28.0 °F 35.6 °F 100% 29.85 in 2.0 mi NNE 10.4 mph - N/A   Overcast
3:28 AM 35.6 °F 28.0 °F 35.6 °F 100% 29.85 in 2.0 mi NE 10.4 mph - N/A   Overcast
3:48 AM 35.6 °F 28.0 °F 35.6 °F 100% 29.84 in 1.8 mi NNE 10.4 mph - N/A   Overcast
3:53 AM 35.6 °F 28.6 °F 35.6 °F 100% 29.84 in 2.0 mi NNE 9.2 mph - N/A   Overcast
3:58 AM 35.4 °F 27.8 °F 35.4 °F 100% 29.89 in 2.0 mi NNE 10.4 mph - N/A   Overcast
4:03 AM 35.6 °F 28.6 °F 35.6 °F 100% 29.84 in 2.5 mi NNE 9.2 mph - N/A   Overcast
4:13 AM 35.6 °F 29.2 °F 35.6 °F 100% 29.84 in 2.0 mi NE 8.1 mph - N/A   Overcast
4:18 AM 35.6 °F 28.6 °F 35.6 °F 100% 29.84 in 1.8 mi NNE 9.2 mph - N/A   Overcast
4:28 AM 35.6 °F 28.6 °F 35.6 °F 100% 29.83 in 2.0 mi NE 9.2 mph - N/A   Overcast
4:48 AM 35.6 °F 27.5 °F 35.6 °F 100% 29.83 in 1.8 mi NNE 11.5 mph - N/A   Overcast
4:53 AM 35.6 °F 28.0 °F 35.6 °F 100% 29.83 in 2.0 mi NNE 10.4 mph - N/A   Overcast
4:58 AM 34.9 °F 28.3 °F 34.9 °F 100% 29.88 in 4.0 mi NNE 8.1 mph - N/A   Overcast
5:03 AM 35.6 °F 29.2 °F 35.6 °F 100% 29.83 in 8.0 mi NNE 8.1 mph - N/A   Overcast
5:08 AM 35.6 °F 28.6 °F 35.6 °F 100% 29.83 in 10.0 mi NNE 9.2 mph - N/A   Overcast
5:28 AM 35.6 °F 28.0 °F 35.6 °F 100% 29.82 in 10.0 mi NNE 10.4 mph - N/A   Overcast
5:58 AM 35.1 °F 28.6 °F 35.1 °F 100% 29.86 in 10.0 mi NE 8.1 mph - N/A   Overcast
6:58 AM 34.9 °F 28.3 °F 34.9 °F 100% 29.85 in 10.0 mi NNE 8.1 mph - N/A   Overcast
7:31 AM 35.6 °F 27.5 °F 35.6 °F 100% 29.78 in 10.0 mi NNE 11.5 mph - N/A   Partly Cloudy
7:58 AM 36.0 °F 29.0 °F 36.0 °F 100% 29.84 in 10.0 mi NE 9.2 mph - 0.00 in Rain Light Rain
8:58 AM 38.1 °F 31.7 °F 38.1 °F 100% 29.82 in 10.0 mi NE 9.2 mph - 0.00 in Rain Light Rain
9:10 AM 39.2 °F 32.5 °F 39.2 °F 100% 29.76 in 10.0 mi NE 10.4 mph - N/A   Overcast
9:12 AM 39.2 °F 32.5 °F 39.2 °F 100% 29.76 in 10.0 mi NE 10.4 mph - N/A Rain Light Rain
9:27 AM 39.2 °F 32.0 °F 39.2 °F 100% 29.75 in 10.0 mi NE 11.5 mph - N/A   Mostly Cloudy
9:48 AM 39.2 °F 32.0 °F 39.2 °F 100% 29.74 in 10.0 mi NE 11.5 mph - N/A Rain Light Rain
9:58 AM 39.7 °F 33.2 °F 39.7 °F 100% 29.79 in 10.0 mi NE 10.4 mph - 0.00 in Rain Light Rain
10:10 AM 41.0 °F 34.3 °F 41.0 °F 100% 29.74 in 10.0 mi NE 11.5 mph - N/A   Overcast
10:32 AM 41.0 °F 33.9 °F 41.0 °F 100% 29.72 in 10.0 mi NE 12.7 mph - N/A Rain Light Rain
10:50 AM 41.0 °F 33.9 °F 41.0 °F 100% 29.71 in 10.0 mi NE 12.7 mph - N/A   Overcast
10:58 AM 41.0 °F 34.7 °F 41.0 °F 100% 29.75 in 10.0 mi NE 10.4 mph - 0.00 in   Overcast
11:58 AM 42.4 °F 37.5 °F 42.4 °F 100% 29.72 in 10.0 mi NE 8.1 mph - N/A   Overcast
12:58 PM 46.6 °F - 46.6 °F 100% 29.68 in 10.0 mi NNE 8.1 mph - N/A   Overcast
1:55 PM 47.8 °F - 47.8 °F 100% 29.65 in 10.0 mi NE 8.1 mph - 0.00 in Rain Light Rain
2:55 PM 46.6 °F - 46.6 °F 100% 29.64 in 10.0 mi East 8.1 mph - 0.00 in Rain Light Rain
3:55 PM 46.4 °F 44.3 °F 46.4 °F 100% 29.64 in 10.0 mi SE 4.6 mph - 0.05 in Rain Light Rain
4:55 PM 44.8 °F 39.9 °F 44.8 °F 100% 29.62 in 10.0 mi ENE 9.2 mph - 0.00 in Rain Light Rain
5:55 PM 44.2 °F 38.8 °F 44.2 °F 100% 29.60 in 10.0 mi ENE 10.4 mph - 0.00 in   Overcast
6:55 PM 46.2 °F 42.7 °F 46.2 °F 100% 29.60 in 10.0 mi SSE 6.9 mph - 0.02 in Rain Light Rain
7:55 PM 46.2 °F 41.7 °F 46.2 °F 100% 29.57 in 10.0 mi SE 9.2 mph - 0.01 in   Overcast
8:55 PM 45.5 °F 37.6 °F 45.5 °F 100% 29.59 in 10.0 mi SSW 20.7 mph - 0.04 in Rain Light Rain
9:55 PM 39.9 °F 29.0 °F 39.9 °F 100% 29.64 in 10.0 mi SSW 26.5 mph 33.4 mph 0.02 in Rain Light Rain
10:13 PM 39.2 °F 30.2 °F 39.2 °F 100% 29.65 in 10.0 mi SW 17.3 mph 26.5 mph N/A Rain Light Rain
10:55 PM 38.7 °F 28.6 °F 38.7 °F 100% 29.68 in 7.0 mi SW 20.7 mph 27.6 mph 0.02 in Rain Light Rain
11:55 PM 37.2 °F 27.0 °F 37.2 °F 100% 29.71 in 10.0 mi SSW 19.6 mph 25.3 mph 0.02 in Snow Light Snow
11:59 PM 37.4 °F 26.6 °F 37.4 °F 100% 29.71 in 10.0 mi SSW 21.9 mph 26.5 mph N/A Snow Light Snow